Time,TemperatureF,DewpointF,PressureIn,WindDirection,WindDirectionDegrees,WindSpeedMPH,WindSpeedGustMPH,Humidity,HourlyPrecipIn,Conditions,Clouds,dailyrainin,SoftwareType,DateUTC
2013-04-18 00:01:00,46.0,42.0,30.46,West,266,3.0,6.0,86,0.00,,,0.01,,2013-04-18 07:01:00,
2013-04-18 00:11:00,46.0,42.0,30.47,West,268,2.0,6.0,86,0.00,,,0.01,,2013-04-18 07:11:00,
2013-04-18 00:21:00,46.0,42.0,30.47,West,268,2.0,6.0,86,0.00,,,0.01,,2013-04-18 07:21:00,
2013-04-18 00:31:00,46.0,42.0,30.47,North,0,0.0,4.0,87,0.00,,,0.01,,2013-04-18 07:31:00,
2013-04-18 00:42:00,46.0,42.0,30.46,West,259,2.0,4.0,87,0.00,,,0.01,,2013-04-18 07:42:00,
2013-04-18 00:52:00,46.0,42.0,30.46,West,259,2.0,4.0,87,0.00,,,0.01,,2013-04-18 07:52:00,
2013-04-18 01:01:00,46.0,42.0,30.47,West,275,2.0,7.0,87,0.00,,,0.01,,2013-04-18 08:01:00,
2013-04-18 01:11:00,46.0,42.0,30.47,West,261,3.0,8.0,87,0.00,,,0.01,,2013-04-18 08:11:00,
2013-04-18 01:22:00,46.0,42.0,30.47,West,261,3.0,8.0,87,0.00,,,0.01,,2013-04-18 08:22:00,
2013-04-18 01:32:00,46.0,42.0,30.47,West,263,2.0,8.0,87,0.00,,,0.01,,2013-04-18 08:32:00,
2013-04-18 01:41:00,46.0,42.0,30.47,WSW,249,1.0,5.0,87,0.00,,,0.01,,2013-04-18 08:41:00,
2013-04-18 01:52:00,46.0,42.0,30.47,WSW,249,1.0,5.0,87,0.00,,,0.01,,2013-04-18 08:52:00,
2013-04-18 02:01:00,46.0,43.0,30.47,North,0,0.0,3.0,88,0.00,,,0.01,,2013-04-18 09:01:00,
2013-04-18 02:11:00,46.0,43.0,30.47,North,0,0.0,2.0,89,0.00,,,0.01,,2013-04-18 09:11:00,
2013-04-18 02:22:00,46.0,43.0,30.47,North,0,0.0,2.0,89,0.00,,,0.01,,2013-04-18 09:22:00,
2013-04-18 02:32:00,46.0,43.0,30.47,North,0,0.0,1.0,89,0.00,,,0.01,,2013-04-18 09:32:00,
2013-04-18 02:42:00,46.0,43.0,30.47,North,0,0.0,5.0,89,0.00,,,0.01,,2013-04-18 09:42:00,
2013-04-18 02:53:00,46.0,43.0,30.47,North,0,0.0,5.0,89,0.00,,,0.01,,2013-04-18 09:53:00,
2013-04-18 03:02:00,46.0,43.0,30.47,West,266,3.0,7.0,89,0.00,,,0.01,,2013-04-18 10:02:00,
2013-04-18 03:12:00,46.0,43.0,30.47,West,266,3.0,7.0,89,0.00,,,0.01,,2013-04-18 10:12:00,
2013-04-18 03:22:00,46.0,43.0,30.47,West,264,2.0,6.0,90,0.00,,,0.01,,2013-04-18 10:22:00,
2013-04-18 03:32:00,46.0,43.0,30.47,West,264,3.0,7.0,90,0.00,,,0.01,,2013-04-18 10:32:00,
2013-04-18 03:42:00,46.0,43.0,30.47,West,264,3.0,7.0,90,0.00,,,0.01,,2013-04-18 10:42:00,
2013-04-18 03:52:00,45.0,43.0,30.47,West,263,2.0,7.0,91,0.00,,,0.01,,2013-04-18 10:52:00,
2013-04-18 04:02:00,45.0,43.0,30.47,West,260,2.0,6.0,91,0.00,,,0.01,,2013-04-18 11:02:00,
2013-04-18 04:11:00,45.0,43.0,30.47,West,266,2.0,6.0,91,0.00,,,0.01,,2013-04-18 11:11:00,
2013-04-18 04:21:00,45.0,43.0,30.47,West,266,2.0,6.0,91,0.00,,,0.01,,2013-04-18 11:21:00,
2013-04-18 04:32:00,45.0,43.0,30.47,West,260,2.0,5.0,91,0.00,,,0.01,,2013-04-18 11:32:00,
2013-04-18 04:42:00,45.0,43.0,30.47,West,266,1.0,3.0,91,0.00,,,0.01,,2013-04-18 11:42:00,
2013-04-18 04:52:00,45.0,43.0,30.47,West,266,1.0,3.0,91,0.00,,,0.01,,2013-04-18 11:52:00,
2013-04-18 05:01:00,45.0,43.0,30.48,WSW,258,2.0,3.0,92,0.00,,,0.01,,2013-04-18 12:01:00,
2013-04-18 05:11:00,45.0,43.0,30.48,West,261,1.0,3.0,93,0.00,,,0.01,,2013-04-18 12:11:00,
2013-04-18 05:22:00,45.0,43.0,30.48,West,261,1.0,3.0,93,0.00,,,0.01,,2013-04-18 12:22:00,
2013-04-18 05:32:00,44.0,42.0,30.47,West,261,1.0,3.0,92,0.00,,,0.01,,2013-04-18 12:32:00,
2013-04-18 05:41:00,44.0,42.0,30.47,West,261,1.0,3.0,92,0.00,,,0.01,,2013-04-18 12:41:00,
2013-04-18 05:52:00,44.0,42.0,30.48,West,261,2.0,3.0,92,0.00,,,0.01,,2013-04-18 12:52:00,
2013-04-18 06:01:00,44.0,42.0,30.47,North,0,0.0,3.0,93,0.00,,,0.01,,2013-04-18 13:01:00,
2013-04-18 06:11:00,44.0,42.0,30.48,West,261,1.0,3.0,92,0.00,,,0.01,,2013-04-18 13:11:00,
2013-04-18 06:21:00,44.0,42.0,30.48,West,261,1.0,3.0,92,0.00,,,0.01,,2013-04-18 13:21:00,
2013-04-18 06:32:00,44.0,42.0,30.48,West,261,1.0,3.0,92,0.00,,,0.01,,2013-04-18 13:32:00,
2013-04-18 06:42:00,44.0,42.0,30.47,North,0,0.0,2.0,93,0.00,,,0.01,,2013-04-18 13:42:00,
2013-04-18 06:52:00,44.0,42.0,30.47,North,0,0.0,2.0,93,0.00,,,0.01,,2013-04-18 13:52:00,
2013-04-18 07:01:00,44.0,42.0,30.48,West,261,2.0,3.0,93,0.00,,,0.01,,2013-04-18 14:01:00,
2013-04-18 07:11:00,44.0,42.0,30.48,West,261,2.0,4.0,93,0.00,,,0.01,,2013-04-18 14:11:00,
2013-04-18 07:22:00,44.0,42.0,30.48,West,261,2.0,4.0,93,0.00,,,0.01,,2013-04-18 14:22:00,
2013-04-18 07:31:00,44.0,42.0,30.48,WSW,257,2.0,4.0,94,0.00,,,0.01,,2013-04-18 14:31:00,
2013-04-18 07:42:00,44.0,42.0,30.48,West,265,2.0,4.0,93,0.00,,,0.01,,2013-04-18 14:42:00,
2013-04-18 07:52:00,44.0,42.0,30.48,West,265,2.0,4.0,93,0.00,,,0.01,,2013-04-18 14:52:00,
2013-04-18 08:01:00,45.0,43.0,30.49,West,263,2.0,4.0,93,0.00,,,0.01,,2013-04-18 15:01:00,
2013-04-18 08:11:00,45.0,43.0,30.49,West,263,2.0,4.0,93,0.00,,,0.01,,2013-04-18 15:11:00,
2013-04-18 08:22:00,45.0,43.0,30.49,West,265,2.0,4.0,91,0.00,,,0.01,,2013-04-18 15:22:00,
2013-04-18 08:33:00,46.0,43.0,30.49,West,263,2.0,4.0,88,0.00,,,0.01,,2013-04-18 15:33:00,
2013-04-18 08:42:00,47.0,43.0,30.49,West,268,2.0,6.0,87,0.00,,,0.01,,2013-04-18 15:42:00,
2013-04-18 08:52:00,47.0,43.0,30.49,West,268,2.0,6.0,87,0.00,,,0.01,,2013-04-18 15:52:00,
2013-04-18 09:02:00,47.0,42.0,30.49,West,264,1.0,6.0,84,0.00,,,0.01,,2013-04-18 16:02:00,
2013-04-18 09:13:00,47.0,42.0,30.49,West,265,2.0,6.0,82,0.00,,,0.01,,2013-04-18 16:13:00,
2013-04-18 09:22:00,47.0,42.0,30.49,West,265,2.0,6.0,82,0.00,,,0.01,,2013-04-18 16:22:00,
2013-04-18 09:32:00,47.0,41.0,30.48,West,263,3.0,5.0,80,0.00,,,0.01,,2013-04-18 16:32:00,
2013-04-18 09:42:00,48.0,42.0,30.48,West,268,1.0,4.0,81,0.00,,,0.01,,2013-04-18 16:42:00,
2013-04-18 09:52:00,48.0,42.0,30.48,West,268,1.0,4.0,81,0.00,,,0.01,,2013-04-18 16:52:00,
2013-04-18 10:02:00,49.0,42.0,30.49,West,262,3.0,6.0,77,0.00,,,0.01,,2013-04-18 17:02:00,
2013-04-18 10:11:00,50.0,42.0,30.48,West,275,1.0,7.0,74,0.00,,,0.01,,2013-04-18 17:11:00,
2013-04-18 10:21:00,50.0,42.0,30.48,West,275,1.0,7.0,74,0.00,,,0.01,,2013-04-18 17:21:00,
2013-04-18 10:32:00,51.0,43.0,30.48,SE,145,1.0,3.0,73,0.00,,,0.01,,2013-04-18 17:32:00,
2013-04-18 10:42:00,51.0,43.0,30.48,ESE,119,2.0,6.0,73,0.00,,,0.01,,2013-04-18 17:42:00,
2013-04-18 10:52:00,51.0,43.0,30.48,ESE,119,2.0,6.0,73,0.00,,,0.01,,2013-04-18 17:52:00,
2013-04-18 11:01:00,52.0,44.0,30.48,East,89,4.0,6.0,73,0.00,,,0.01,,2013-04-18 18:01:00,
2013-04-18 11:12:00,51.0,42.0,30.48,North,0,0.0,6.0,72,0.00,,,0.01,,2013-04-18 18:12:00,
2013-04-18 11:22:00,51.0,42.0,30.48,North,0,0.0,6.0,72,0.00,,,0.01,,2013-04-18 18:22:00,
2013-04-18 11:32:00,52.0,43.0,30.48,ESE,113,1.0,3.0,72,0.00,,,0.01,,2013-04-18 18:32:00,
2013-04-18 11:42:00,53.0,43.0,30.47,North,0,0.0,4.0,69,0.00,,,0.01,,2013-04-18 18:42:00,
2013-04-18 11:52:00,53.0,43.0,30.47,North,0,0.0,4.0,69,0.00,,,0.01,,2013-04-18 18:52:00,
2013-04-18 12:02:00,54.0,45.0,30.47,NW,317,1.0,4.0,72,0.00,,,0.01,,2013-04-18 19:02:00,
2013-04-18 12:21:00,53.0,44.0,30.47,West,265,2.0,6.0,71,0.00,,,0.01,,2013-04-18 19:21:00,
2013-04-18 12:31:00,54.0,44.0,30.47,North,0,0.0,5.0,70,0.00,,,0.01,,2013-04-18 19:31:00,
2013-04-18 12:41:00,55.0,44.0,30.47,West,265,5.0,9.0,66,0.00,,,0.01,,2013-04-18 19:41:00,
2013-04-18 12:52:00,55.0,44.0,30.47,West,265,5.0,9.0,66,0.00,,,0.01,,2013-04-18 19:52:00,
2013-04-18 13:02:00,55.0,45.0,30.46,West,266,4.0,10.0,68,0.00,,,0.01,,2013-04-18 20:02:00,
2013-04-18 13:11:00,55.0,44.0,30.45,West,266,4.0,10.0,66,0.00,,,0.01,,2013-04-18 20:11:00,
2013-04-18 13:22:00,55.0,44.0,30.45,West,266,4.0,10.0,66,0.00,,,0.01,,2013-04-18 20:22:00,
2013-04-18 13:32:00,56.0,46.0,30.45,West,272,1.0,6.0,69,0.00,,,0.01,,2013-04-18 20:32:00,
2013-04-18 13:41:00,56.0,45.0,30.44,West,259,2.0,8.0,67,0.00,,,0.01,,2013-04-18 20:41:00,
2013-04-18 13:52:00,56.0,45.0,30.44,West,259,2.0,8.0,67,0.00,,,0.01,,2013-04-18 20:52:00,
2013-04-18 14:01:00,56.0,45.0,30.44,West,264,5.0,8.0,67,0.00,,,0.00,,2013-04-18 21:01:00,
2013-04-18 14:11:00,56.0,46.0,30.44,WSW,257,5.0,10.0,68,0.00,,,0.00,,2013-04-18 21:11:00,
2013-04-18 14:21:00,56.0,46.0,30.44,WSW,257,5.0,10.0,68,0.00,,,0.00,,2013-04-18 21:21:00,
2013-04-18 14:32:00,56.0,46.0,30.44,West,259,3.0,9.0,69,0.00,,,0.00,,2013-04-18 21:32:00,
2013-04-18 14:43:00,57.0,47.0,30.43,West,260,5.0,8.0,69,0.00,,,0.00,,2013-04-18 21:43:00,
2013-04-18 14:53:00,57.0,47.0,30.43,West,260,5.0,8.0,69,0.00,,,0.00,,2013-04-18 21:53:00,
2013-04-18 15:02:00,58.0,49.0,30.43,West,261,3.0,9.0,71,0.00,,,0.00,,2013-04-18 22:02:00,
2013-04-18 15:12:00,58.0,48.0,30.42,West,272,2.0,7.0,70,0.00,,,0.00,,2013-04-18 22:12:00,
2013-04-18 15:22:00,58.0,48.0,30.42,West,272,2.0,7.0,70,0.00,,,0.00,,2013-04-18 22:22:00,
2013-04-18 15:32:00,58.0,47.0,30.42,West,259,4.0,8.0,68,0.00,,,0.00,,2013-04-18 22:32:00,
2013-04-18 15:41:00,58.0,48.0,30.41,West,261,3.0,8.0,69,0.00,,,0.00,,2013-04-18 22:41:00,
2013-04-18 15:52:00,58.0,48.0,30.41,West,261,3.0,8.0,69,0.00,,,0.00,,2013-04-18 22:52:00,
2013-04-18 16:03:00,58.0,47.0,30.41,West,263,6.0,10.0,67,0.00,,,0.00,,2013-04-18 23:03:00,
2013-04-18 16:11:00,58.0,47.0,30.41,West,259,5.0,15.0,67,0.00,,,0.00,,2013-04-18 23:11:00,
2013-04-18 16:21:00,58.0,47.0,30.41,West,259,5.0,15.0,67,0.00,,,0.00,,2013-04-18 23:21:00,
2013-04-18 16:32:00,57.0,47.0,30.41,West,260,7.0,14.0,70,0.00,,,0.00,,2013-04-18 23:32:00,
2013-04-18 16:42:00,57.0,47.0,30.40,West,263,7.0,13.0,69,0.00,,,0.00,,2013-04-18 23:42:00,
2013-04-18 16:52:00,57.0,47.0,30.40,West,263,7.0,13.0,69,0.00,,,0.00,,2013-04-18 23:52:00,
2013-04-18 17:01:00,57.0,47.0,30.40,West,262,6.0,12.0,69,0.00,,,0.00,,2013-04-19 00:01:00,
2013-04-18 17:11:00,56.0,47.0,30.40,West,266,5.0,12.0,72,0.00,,,0.00,,2013-04-19 00:11:00,
2013-04-18 17:21:00,56.0,47.0,30.40,West,266,5.0,12.0,72,0.00,,,0.00,,2013-04-19 00:21:00,
2013-04-18 17:31:00,56.0,47.0,30.40,WSW,255,5.0,9.0,72,0.00,,,0.00,,2013-04-19 00:31:00,
2013-04-18 17:41:00,55.0,46.0,30.40,West,262,7.0,13.0,72,0.00,,,0.00,,2013-04-19 00:41:00,
2013-04-18 17:51:00,55.0,46.0,30.40,West,262,7.0,13.0,72,0.00,,,0.00,,2013-04-19 00:51:00,
2013-04-18 18:01:00,55.0,47.0,30.39,West,264,4.0,11.0,73,0.00,,,0.00,,2013-04-19 01:01:00,
2013-04-18 18:11:00,55.0,47.0,30.39,WSW,255,4.0,11.0,75,0.00,,,0.00,,2013-04-19 01:11:00,
2013-04-18 18:21:00,55.0,47.0,30.39,WSW,255,4.0,11.0,75,0.00,,,0.00,,2013-04-19 01:21:00,
2013-04-18 18:31:00,55.0,47.0,30.39,WSW,255,4.0,11.0,75,0.00,,,0.00,,2013-04-19 01:31:00,
2013-04-18 18:42:00,53.0,45.0,30.39,West,263,6.0,12.0,75,0.00,,,0.00,,2013-04-19 01:42:00,
2013-04-18 18:52:00,53.0,45.0,30.39,West,263,6.0,12.0,75,0.00,,,0.00,,2013-04-19 01:52:00,
2013-04-18 19:01:00,53.0,46.0,30.39,WSW,257,8.0,15.0,76,0.00,,,0.00,,2013-04-19 02:01:00,
2013-04-18 19:11:00,53.0,46.0,30.39,WSW,257,8.0,15.0,76,0.00,,,0.00,,2013-04-19 02:11:00,
2013-04-18 19:21:00,53.0,46.0,30.39,WSW,257,8.0,15.0,76,0.00,,,0.00,,2013-04-19 02:21:00,
2013-04-18 19:31:00,52.0,45.0,30.39,West,262,6.0,11.0,78,0.00,,,0.00,,2013-04-19 02:31:00,
2013-04-18 19:42:00,51.0,45.0,30.38,West,260,5.0,8.0,80,0.00,,,0.00,,2013-04-19 02:42:00,
2013-04-18 19:51:00,51.0,45.0,30.38,West,260,5.0,8.0,80,0.00,,,0.00,,2013-04-19 02:51:00,
2013-04-18 20:01:00,51.0,46.0,30.38,West,259,5.0,11.0,82,0.00,,,0.00,,2013-04-19 03:01:00,
2013-04-18 20:11:00,51.0,46.0,30.38,West,264,5.0,9.0,84,0.00,,,0.00,,2013-04-19 03:11:00,
2013-04-18 20:21:00,51.0,46.0,30.38,West,264,5.0,9.0,84,0.00,,,0.00,,2013-04-19 03:21:00,
2013-04-18 20:32:00,50.0,46.0,30.37,West,260,4.0,9.0,85,0.00,,,0.00,,2013-04-19 03:32:00,
2013-04-18 20:42:00,50.0,46.0,30.37,WSW,258,5.0,10.0,87,0.00,,,0.00,,2013-04-19 03:42:00,
2013-04-18 20:53:00,50.0,46.0,30.37,WSW,258,5.0,10.0,87,0.00,,,0.00,,2013-04-19 03:53:00,
2013-04-18 21:03:00,50.0,47.0,30.37,West,259,5.0,11.0,89,0.00,,,0.00,,2013-04-19 04:03:00,
2013-04-18 21:12:00,49.0,46.0,30.37,West,265,3.0,8.0,89,0.00,,,0.00,,2013-04-19 04:12:00,
2013-04-18 21:23:00,49.0,46.0,30.37,West,265,3.0,8.0,89,0.00,,,0.00,,2013-04-19 04:23:00,
2013-04-18 21:32:00,49.0,46.0,30.37,West,265,3.0,8.0,89,0.00,,,0.00,,2013-04-19 04:32:00,
2013-04-18 21:43:00,49.0,46.0,30.37,West,261,3.0,7.0,90,0.00,,,0.00,,2013-04-19 04:43:00,
2013-04-18 21:52:00,49.0,46.0,30.37,West,261,3.0,7.0,90,0.00,,,0.00,,2013-04-19 04:52:00,
2013-04-18 22:02:00,49.0,46.0,30.37,West,273,1.0,5.0,90,0.00,,,0.00,,2013-04-19 05:02:00,
2013-04-18 22:11:00,49.0,46.0,30.37,West,273,1.0,5.0,90,0.00,,,0.00,,2013-04-19 05:11:00,
2013-04-18 22:22:00,49.0,46.0,30.37,West,263,2.0,4.0,91,0.00,,,0.00,,2013-04-19 05:22:00,
2013-04-18 22:31:00,49.0,46.0,30.37,West,263,3.0,6.0,91,0.00,,,0.00,,2013-04-19 05:31:00,
2013-04-18 22:42:00,49.0,46.0,30.37,West,263,3.0,6.0,91,0.00,,,0.00,,2013-04-19 05:42:00,
2013-04-18 22:52:00,49.0,46.0,30.37,West,268,2.0,6.0,91,0.00,,,0.00,,2013-04-19 05:52:00,
2013-04-18 23:01:00,49.0,47.0,30.37,West,267,1.0,5.0,92,0.00,,,0.00,,2013-04-19 06:01:00,
2013-04-18 23:11:00,49.0,47.0,30.35,West,264,1.0,3.0,92,0.00,,,0.00,,2013-04-19 06:11:00,
2013-04-18 23:21:00,49.0,47.0,30.35,West,264,1.0,3.0,92,0.00,,,0.00,,2013-04-19 06:21:00,
2013-04-18 23:31:00,49.0,47.0,30.35,West,267,2.0,4.0,92,0.00,,,0.00,,2013-04-19 06:31:00,
2013-04-18 23:42:00,49.0,47.0,30.35,West,267,2.0,4.0,92,0.00,,,0.00,,2013-04-19 06:42:00,
2013-04-18 23:52:00,49.0,47.0,30.34,West,262,1.0,3.0,92,0.00,,,0.00,,2013-04-19 06:52:00,